Flag for Canada

Past Weather in Yellowknife, Northwest Territories, Canada — Yesterday and Last 2 Weeks

Now
43 °F

Passing clouds.


Feels Like: 36 °F
Forecast: 46 / 42 °F
Wind: 12 mph from West

Location: Yellowknife
Current Time: Sep 29, 2020 at 2:24:57 am
Latest Report: Sep 29, 2020 at 1:00 am
Visibility: 15 mi
Pressure29.57 "Hg
Humidity: 87%
Dew Point: 39 °F
Location of YellowknifeLocation

Past Weather in Yellowknife — Graph

°F

Yellowknife Temperature Yesterday

Maximum temperature yesterday: 57 °F (at 4:00 pm)
Minimum temperature yesterday: 43 °F (at 11:00 pm)
Average temperature yesterday: 48 °F

High & Low Weather Summary for the Past Weeks

 TemperatureHumidityPressure
High66 °F (Sep 19, 3:00 pm)100% (Sep 17, 8:00 am)30.37 "Hg (Sep 17, 8:00 am)
Low27 °F (Sep 15, 11:00 pm)30% (Sep 15, 5:00 pm)29.29 "Hg (Sep 24, 6:00 pm)
Average45 °F82%29.80 "Hg
* Reported Sep 14 12:00 am — Sep 29 12:00 am, Yellowknife. Weather by CustomWeather, © 2020

Note: Actual official high and low records may vary slightly from our data, if they occured in-between our weather recording intervals... More about our weather records

Yellowknife Weather History for the Previous 24 Hours

Scroll right to see more
 ConditionsComfort  
Time TempWeatherWind HumidityBarometerVisibility
12:00 am
Tue, Sep 29
43 °FPassing clouds.12 mph87%29.56 "Hg15 mi
11:00 pm
Mon, Sep 28
43 °FPassing clouds.8 mph87%29.56 "Hg15 mi
10:00 pm45 °FPassing clouds.8 mph81%29.55 "Hg15 mi
9:00 pm48 °FPassing clouds.7 mph66%29.52 "Hg15 mi
8:00 pm48 °FPassing clouds.7 mph71%29.53 "Hg15 mi
7:00 pm54 °FPassing clouds.9 mph58%29.52 "Hg15 mi
6:00 pm55 °FPassing clouds.14 mph55%29.51 "Hg15 mi
5:00 pm57 °FScattered clouds.9 mph55%29.50 "Hg15 mi
4:00 pm57 °FScattered clouds.17 mph55%29.49 "Hg15 mi
3:00 pm55 °FPassing clouds.15 mph63%29.47 "Hg15 mi
2:00 pm54 °FPassing clouds.16 mph67%29.45 "Hg15 mi
1:00 pm52 °FPassing clouds.14 mph72%29.43 "Hg15 mi
12:00 pm50 °FScattered clouds.13 mph82%29.42 "Hg15 mi
11:00 am48 °FScattered clouds.9 mph94%29.41 "Hg15 mi
10:00 am46 °FBroken clouds.12 mph93%29.41 "Hg15 mi
9:00 am46 °FPartly sunny.7 mph100%29.41 "Hg15 mi
8:27 am46 °FBroken clouds.7 mph100%29.41 "Hg15 mi
8:00 am46 °FLight rain. Mostly cloudy.8 mph100%29.42 "Hg10 mi
7:00 am46 °FLight rain. Low clouds.13 mph100%29.44 "Hg10 mi
6:26 am46 °FLight rain. Low clouds.18 mph100%29.45 "Hg6 mi
6:10 am46 °FRain. Low clouds.18 mph100%29.46 "Hg4 mi
5:48 am45 °FLight rain. Low clouds.18 mph100%29.47 "Hg3 mi
5:00 am45 °FLight rain. Low clouds.20 mph100%29.51 "Hg6 mi
4:24 am45 °FLight rain. Low clouds.20 mph100%29.54 "Hg6 mi
4:00 am45 °FLight rain. Overcast.18 mph100%29.57 "Hg6 mi
3:00 am45 °FLight rain. Overcast.17 mph93%29.63 "Hg6 mi
2:13 am45 °FLight rain. Mostly cloudy.18 mph93%29.66 "Hg15 mi
Weather by CustomWeather, © 2020

See weather overview